Weather History for Dillon, MT

Change the Weather History Date:

Thursday, July 18, 2013

  Actual Average Record
Temperature  
Mean Temperature 71 °F 66 °F  
Max Temperature 86 °F 83 °F 99 °F (1951)
Min Temperature 55 °F 50 °F 32 °F (1973)
Degree Days  
Heating Degree Days 0    
Month to date heating degree days 0  
Since 1 June heating degree days 188  
Since 1 July heating degree days 0  
Cooling Degree Days 6    
Month to date cooling degree days 86  
Year to date cooling degree days 111  
Since 1 June cooling degree days 108  
Growing Degree Days 20 (Base 50)    
Moisture  
Dew Point 50 °F    
Average Humidity 56    
Maximum Humidity 93    
Minimum Humidity 19    
Precipitation  
Precipitation 0.00 in 0.04 in 0.75 in (1976)
Month to date precipitation 0.83 0.71  
Year to date precipitation 5.41 6.75  
Snow  
Snow 0.00 in - - ()
Snow Depth 0.00 in    
Sea Level Pressure  
Sea Level Pressure 30.07 in    
Wind  
Wind Speed 3 mph (ENE)    
Max Wind Speed 10 mph    
Max Gust Speed 13 mph    
Visibility 10 miles    
Events      
T = Trace of Precipitation, MM = Missing Value Source: NWS Daily Summary

Daily Weather History Graph

Daily Weather History Graph

Search for Another Location

Airport:

Trip Planner

Search our weather history database for the weather conditions in past years. The results will help you decide how hot, cold, wet, or windy it might be!

Date:

Astronomy

Jul. 18, 2013 Rise Set
Actual Time 6:00 AM MDT 9:12 PM MDT
Civil Twilight 5:24 AM MDT 9:47 PM MDT
Nautical Twilight 4:37 AM MDT 10:34 PM MDT
Astronomical Twilight 3:40 AM MDT 11:30 PM MDT
Moon 5:12 PM MDT (7/18) 1:56 AM MDT (7/18)
Length of Visible Light 16h 23m
Length of Day
15h 12m
Waxing Gibbous, 78% of the Moon is Illuminated
Jul 18
Waxing Gibbous
Jul 22
Full
Jul 29
Last Quarter
Aug 6
New
Aug 14
First Quarter

Hourly Weather History & Observations

Time (MDT) Temp. Dew Point Humidity Pressure Visibility Wind Dir Wind Speed Gust Speed Precip Events Conditions
12:53 AM 61.0 °F 55.9 °F 83% 30.10 in 10.0 mi Calm Calm - N/A   Clear
1:53 AM 60.1 °F 55.9 °F 86% 30.09 in 10.0 mi SSE 9.2 mph - N/A   Partly Cloudy
2:53 AM 57.0 °F 55.0 °F 93% 30.09 in 10.0 mi SSW 3.5 mph - N/A   Partly Cloudy
3:53 AM 59.0 °F 55.9 °F 90% 30.09 in 10.0 mi South 6.9 mph - 0.01 in   Scattered Clouds
4:53 AM 57.9 °F 55.0 °F 90% 30.13 in 10.0 mi Calm Calm - N/A   Mostly Cloudy
5:53 AM 57.0 °F 54.0 °F 89% 30.13 in 10.0 mi SE 4.6 mph - N/A   Scattered Clouds
6:53 AM 55.0 °F 53.1 °F 93% 30.14 in 9.0 mi SSW 3.5 mph - N/A   Clear
7:53 AM 59.0 °F 55.9 °F 90% 30.14 in 10.0 mi Calm Calm - N/A   Clear
8:53 AM 62.1 °F 57.9 °F 86% 30.15 in 10.0 mi Calm Calm - N/A   Mostly Cloudy
9:53 AM 66.9 °F 59.0 °F 76% 30.14 in 10.0 mi Calm Calm - N/A   Clear
10:53 AM 72.0 °F 55.9 °F 57% 30.12 in 10.0 mi Variable 3.5 mph - N/A   Clear
11:53 AM 77.0 °F 48.9 °F 37% 30.10 in 10.0 mi Calm Calm - N/A   Clear
12:53 PM 79.0 °F 48.0 °F 34% 30.08 in 10.0 mi Calm Calm - N/A   Clear
1:53 PM 82.0 °F 37.0 °F 20% 30.06 in 10.0 mi Calm Calm - N/A   Clear
2:53 PM 84.0 °F 43.0 °F 24% 30.05 in 10.0 mi North 4.6 mph - N/A   Clear
3:53 PM 84.9 °F 43.0 °F 23% 30.02 in 10.0 mi NNW 4.6 mph - N/A   Clear
4:53 PM 84.9 °F 37.0 °F 18% 30.01 in 10.0 mi Calm Calm - N/A   Clear
5:53 PM 86.0 °F 43.0 °F 22% 29.99 in 10.0 mi North 5.8 mph - N/A   Clear
6:53 PM 84.9 °F 39.0 °F 20% 29.99 in 10.0 mi NNE 6.9 mph - N/A   Clear
7:53 PM 81.0 °F 51.1 °F 35% 30.00 in 10.0 mi NE 5.8 mph - N/A   Clear
8:53 PM 73.0 °F 50.0 °F 44% 30.01 in 10.0 mi NE 8.1 mph - N/A   Clear
9:53 PM 70.0 °F 46.9 °F 44% 30.02 in 10.0 mi ENE 4.6 mph - N/A   Clear
10:53 PM 62.1 °F 48.9 °F 62% 30.05 in 10.0 mi Calm Calm - N/A   Clear
11:53 PM 64.9 °F 44.1 °F 47% 30.04 in 10.0 mi Calm Calm - N/A   Clear